Accueil
METAR-TAF:

METAR-TAF

Aéroports :

Port Hawkesbury, Nouvelle-Écosse, Canada

latitude: 45-40N, longitude: 061-23W, altitude: 114 m

Observation

Le bulletin a été fait il y a 1 heure et 6 minutes, à 21:00 UTC
Vent 11 kt de ouest
Température 2°C
Humidité 51%
Pression 1017 hPa
Visibilité: 14.5 km
Ciel clair

METAR: CYPD 192100Z AUTO 28011KT 9SM CLR 02/M07 A3003 RMK SLP174

Heure: 19:06 (22:06 UTC)


TAF: absent

Observations et prévisions météorologiques de plus de 4000 aéroports (messages METAR et TAF).

Les stations disponibles sont représentées par des disques jaunes et rouges sur la carte.

Passer la souris dessus pour voir le nom de la station.

Cliquer dessus pour voir les observations et prévisions météorologiques.

Pour changer de carte: cliquez sur les boutons verts avec une croix noire pour zoomer, sur le bouton vert avec un tiret pour effectuer un zoom arrière, ou sur les flèches vertes pour les cartes adjacentes.


METAR-TAF: